This demonstration page uses our WeatherBlox Daily Observations layout. Learn more.

Left ArrowRight Arrow

34.74481, -87.66753

Hourly Observations for June 1, 2021

Temp ( °F °C ) Dew Point ( °F °C ) Humidity (%) Winds ( mph kmh ) Pressure ( in mb ) Visibility ( mi km ) Precip ( " mm )
12:53 am 00:53 Mostly Cloudy 66 18.9 59 15 78 78 Calm 30.15 1021 10 16 0.00 0.00
1:53 am 01:53 Mostly Cloudy 66 18.9 58 14.4 75 75 Calm 30.14 1021 10 16 0.00 0.00
2:53 am 02:53 Mostly Clear 65 18.3 58 14.4 78 78 E 3 6 30.14 1021 10 16 0.00 0.00
3:53 am 03:53 Clear 63 17.2 57 13.9 81 81 E 5 7 30.15 1021 10 16 0.00 0.00
4:53 am 04:53 Clear 64 17.8 58 14.4 81 81 Calm 30.15 1021 10 16 0.00 0.00
5:53 am 05:53 Sunny 64 17.8 56 13.3 75 75 ESE 6 9 30.16 1021 10 16 0.00 0.00
6:53 am 06:53 Partly Cloudy 66 18.9 57 13.9 73 73 ESE 5 7 30.16 1022 10 16 0.00 0.00
7:53 am 07:53 Partly Cloudy 69 20.6 58 14.4 68 68 ESE 5 7 30.18 1022 10 16 0.00 0.00
8:53 am 08:53 Cloudy 72 22.2 57 13.9 59 59 SE 7 11 30.18 1022 10 16 0.00 0.00
9:53 am 09:53 Sunny 78 25.6 57 13.9 48 48 SSE 8 13 30.16 1021 10 16 0.00 0.00
10:53 am 10:53 Sunny 78 25.6 58 14.4 50 50 SE 6 9 30.16 1021 10 16 0.00 0.00
11:53 am 11:53 Sunny 81 27.2 60 15.6 49 49 SE 7 11 30.14 1021 10 16 0.00 0.00
12:53 pm 12:53 Sunny 83 28.3 60 15.6 46 46 S 7 11 30.13 1020 10 16 0.00 0.00
1:53 pm 13:53 Sunny 85 29.4 60 15.6 43 43 S 10 17 30.10 1019 10 16 0.00 0.00
2:53 pm 14:53 Mostly Sunny 86 30 58 14.4 39 39 SSW 12 19 30.07 1018 10 16 0.00 0.00
3:53 pm 15:53 Mostly Cloudy 86 30 58 14.4 39 39 S 13 20 30.06 1018 10 16 0.00 0.00
4:53 pm 16:53 Sunny 86 30 59 15 40 40 S 7 11 30.05 1018 10 16 0.00 0.00
5:53 pm 17:53 Sunny 83 28.3 58 14.4 43 43 SSE 7 11 30.04 1017 10 16 0.00 0.00
6:53 pm 18:53 Sunny 82 27.8 61 16.1 49 49 SE 5 7 30.03 1017 10 16 0.00 0.00
7:53 pm 19:53 Sunny 78 25.6 62 16.7 58 58 SE 5 7 30.03 1017 10 16 0.00 0.00
8:53 pm 20:53 Clear 76 24.4 63 17.2 64 64 SE 5 7 30.03 1017 10 16 0.00 0.00
9:53 pm 21:53 Clear 77 25 63 17.2 62 62 SE 7 11 30.04 1017 10 16 0.00 0.00
10:53 pm 22:53 Clear 76 24.4 63 17.2 64 64 SE 7 11 30.04 1017 10 16 0.00 0.00
11:53 pm 23:53 Mostly Cloudy 76 24.4 62 16.7 62 62 SSE 7 11 30.02 1017 10 16 0.00 0.00

Powered by AerisWeather